Location: Seattle
(47.6064°N, 122.3308°W)
Time: 00:55:47
(UTC-08:00)

A-11 Canister half - Pass Details

Date: 26 November 2020
Orbit: 1524 x 1684 km, 47.3° (Epoch: 21 January)

Event Time Altitude Azimuth Distance (km) Brightness Sun altitude
Rises 03:43:07 0° 164° (SSE) 4,924 11.7 -37.7°
Reaches altitude 10° 03:51:43 10° 121° (ESE) 3,936 11.6 -36.3°
Maximum altitude 03:51:57 10° 120° (ESE) 3,935 11.6 -36.3°
Drops below altitude 10° 03:52:11 10° 119° (ESE) 3,935 11.7 -36.2°
Sets 04:00:40 0° 77° (ENE) 4,899 12.7 -34.8°
